SXM-7 1 47240U 20096A 21066.15206154 -.00000007 00000-0 00000+0 0 9990 2 47240 0.0258 82.0100 0003698 341.9998 35.2963 1.00269824 1005 FALCON 9 R/B 1 47241U 20096B 21065.75930149 .00021327 00000-0 79512-3 0 9999 2 47241 27.0446 110.3383 5915869 287.0042 18.8100 4.24029647 3546